Location: Chandolas
(44.4033°N, 4.2533°E)
Time: 02:34:23
(UTC+00:00)

Cosmos 1869 - Pass Details

Date: 15 November 2019
Orbit: 529 x 554 km, 82.5° (Epoch: 05 December)

Event Time Altitude Azimuth Distance (km) Brightness Sun altitude
Exits shadow 04:28:36 63° 19° (NNE) 599 3.4 -23.1°
Maximum altitude 04:29:08 76° 81° (E) 551 3.3 -23.1°
Drops below altitude 10° 04:33:03 10° 168° (SSE) 1,777 6.1 -22.4°
Sets 04:35:11 0° 169° (S) 2,665 7.0 -22.0°
